SCP
0 0 0 0 0 0 0 0 0 0 0 0 0 0 0 0 0 0 0 0 0 0 0 0 0 0 0 0 0 0 0 0 0 0 0 0 0 0 0 0 0 0 0
0 0 0 0 0 0 0 0 0 0 0 0 0 0 0 0 0 0 0 0 0 0 0 0 0 0 0 0 0 0 0 0 0 0 0 0 0 0 0 0 0 0 0
0 0 0 0 0 0 0 0 0 0 0 0 0 0 0 0 0 0 0 0 0 0 0 0 0 0 0 0 0 0 0 0 0 0 0 0 0 0 0 0 0 0 0
0 0 0 0 0 0 0 0 0 0 0 0 0 0 0 0 0 0 0 0 0 0 0 0 0 0 0 0 0 0 0 0 0 0 0 0 0 0 0 0 0 0 0
0 0 0 0 0 0 0 0 0 0 0 0 0 0 0 0 0 0 0 0 0 0 0 0 0 0 0 0 0 0 0 0 0 0 0 0 0 0 0 0 0 0 0
0 0 0 0 0 0 0 0 0 0 0 0 0 0 0 0 0 0 0 0 0 0 0 0 0 0 0 0 0 0 0 0 0 0 0 0 0 0 0 0 0 0 0
0 0 0 0 0 0 0 0 0 0 0 0 0 0 0 0 0 0 0 0 0 0 0 0 0 0 0 0 0 0 0 0 0 0 0 0 0 0 0 0 0 0 0
0 0 0 0 0 0 0 0 0 0 0 0 0 0 0 0 0 0 0 0 0 0 0 0 0 0 0 0 0 0 0 0 0 0 0 0 0 0 0 0 0 0 0
0 0 0 0 0 0 0 0 0 0 0 0 0 0 0 0 0 0 0 0 0 0 0 0 0 0 0 0 0 0 0 0 0 0 0 0 0 0 0 0 0 0 0
0 0 0 0 0 0 0 0 0 0 0 0 0 0 0 0 0 0 0 0 0 0 0 0 0 0 0 0 0 0 0 0 0 0 0 0 0 0 0 0 0 0 0
0 0 0 0 0 0 0 0 0 0 0 0 0 0 0 0 0 0 0 0 0 0 0 0 0 0 0 0 0 0 0 0 0 0 0 0 0 0 0 0 0 0 0
0 0 0 0 0 0 0 0 0 0 0 0 0 0 0 0 0 0 0 0 0 0 0 -0 0 0 0 0 0 0 0 0 0 0 0 0 0 0 0 0 0 0 0
0 0 0 0 0 0 0 0 0 0 0 0 0 0 0 0 0 0 0 0 0 0 -0 0 0 0 0 0 0 0 0 0 0 0 0 0 0 0 0 0 0 0 0
0 0 0 0 0 0 0 0 0 0 0 0 0 0 0 0 0 0 0 0 0 0 0 -0 -0 0 0 0 0 0 0 0 0 0 0 0 0 0 0 0 0 0 0
0 0 0 0 0 0 0 0 0 0 0 0 0 0 0 0 0 0 0 0 0 0 0 -0 0 0 0 0 0 0 0 0 0 0 0 0 0 0 0 0 0 0 0
0 0 0 0 -0 -0 0 0 -0 0 0 0 0 0 0 0 0 0 0 0 0 0 0 0 0 0 0 0 0 0 0 0 0 0 0 0 0 0 0 0 0 0 0
0 0 -0 -0 -0 -0 0 0 0 0 0 0 0 -0 -0 0 0 0 0 0 0 0 0 0 0 0 0 0 0 0 0 0 0 0 0 0 0 0 0 0 0 0 0
0 -0 0 -0 -0 -0 -0 -0 -0 -0 -0 -0 -0 -0 -0 0 0 0 0 0 0 0 0 0 0 0 0 0 0 0 0 0 0 0 0 0 0 0 0 0 0 0 0
0 0 0 -0 -0 0 0 0 0 -0 -0 -0 -0 -0 -0 0 0 0 0 0 0 0 0 0 0 0 0 0 0 0 0 0 0 0 0 0 0 -0 -0 0 0 0 0
0 0 0 0 -0 0 0 -0 -0 -0 -0 -0 -0 -0 0 0 0 0 0 0 0 0 0 0 0 0 0 0 0 0 0 0 0 0 0 0 0 0 0 0 0 0 0
0 0 0 0 -0 -0 -0 -0 -0 -0 -0 0 0 0 0 0 0 0 0 0 0 0 0 0 0 0 0 0 0 0 0 0 0 0 0 0 0 0 0 0 0 0 0
0 0 0 0 -0 -0 -0 0 -0 -0 -0 -0 0 0 0 0 0 0 0 0 0 0 0 0 0 0 0 0 0 0 0 0 0 0 0 0 0 0 0 0 0 0 0
0 0 0 0 0 0 0 0 0 0 0 0 0 0 0 0 0 0 0 0 0 -0 -0 0 0 0 0 0 0 0 0 0 0 0 0 0 0 0 0 0 0 0 0
0 0 0 0 0 0 0 0 0 0 0 0 0 0 0 0 0 0 0 0 0 0 0 0 0 0 0 0 0 0 0 0 0 0 0 0 0 0 0 0 0 0 -0
0 0 0 0 0 0 0 0 0 0 0 0 0 0 0 0 0 0 0 0 0 0 0 0 0 0 0 0 0 0 0 0 -0 0 0 0 0 0 0 0 0 -0 -0
0 0 0 0 0 0 0 0 0 0 0 0 0 0 0 0 0 0 0 0 0 0 0 -0 0 0 0 0 0 0 0 0 0 0 0 0 0 0 0 0 0 -0 -0
Wind_Speed_500mb
8 7 5 6 9 13 15 17 20 22 24 27 29 34 35 37 38 41 44 45 47 50 52 56 62 64 64 63 61 58 56 55 54 54 55 55 56 56 56 56 56 56 54
11 13 15 16 20 21 23 24 27 28 30 35 34 35 36 36 38 40 45 49 48 48 49 52 55 57 62 66 68 69 70 69 69 68 69 68 67 65 63 63 62 60 60
22 25 24 23 26 31 33 37 38 37 44 47 44 46 49 47 47 46 46 50 53 56 57 59 60 60 59 62 65 69 73 75 76 77 78 79 79 78 77 75 71 67 65
21 25 29 29 28 34 38 42 44 50 49 52 53 51 57 59 60 59 59 58 58 58 60 59 57 60 66 69 71 73 75 77 80 82 83 83 82 83 84 84 83 79 76
20 24 25 29 33 36 40 36 42 43 46 51 56 62 65 67 69 69 66 67 65 67 67 66 62 58 59 60 65 71 75 78 81 83 85 85 84 84 83 83 82 83 82
9 11 15 17 20 21 22 25 26 29 35 43 50 56 55 55 56 56 57 57 57 55 50 51 56 61 66 69 65 63 62 62 66 71 74 82 85 84 84 84 82 79 77
6 8 11 12 15 18 22 25 26 29 33 38 44 48 47 39 36 40 44 38 40 44 47 51 58 53 56 65 71 66 64 68 70 71 70 72 73 79 85 88 85 82 81
9 12 14 16 19 21 23 25 27 28 31 37 37 35 26 40 20 27 42 52 53 59 53 53 57 61 64 57 60 65 69 70 69 71 72 72 77 78 75 75 86 86 83
13 14 16 18 20 23 26 30 31 33 36 35 34 23 16 16 54 27 44 33 46 60 63 70 66 67 70 74 77 77 69 67 68 70 76 78 76 75 75 74 68 69 75
18 21 24 25 27 28 29 31 32 31 30 31 28 30 23 18 19 42 45 71 46 69 66 70 65 68 68 61 56 58 71 71 67 67 73 76 75 77 72 72 73 75 74
22 24 27 30 31 33 34 34 33 35 36 32 29 33 26 29 13 33 62 64 76 68 68 76 73 60 62 60 65 67 68 74 77 72 71 76 78 76 76 75 74 75 74
24 27 28 28 29 29 30 31 32 33 34 33 32 36 36 32 40 34 52 67 72 71 81 52 67 51 68 65 68 64 67 67 68 73 79 80 80 80 78 76 80 82 81
27 30 31 32 33 34 34 34 34 34 35 36 36 36 34 35 38 40 51 66 75 81 47 69 63 67 58 58 63 85 86 84 87 87 88 81 83 81 77 74 73 74 75
30 31 32 33 34 35 36 35 35 35 35 34 33 33 36 34 36 38 47 61 84 53 63 66 53 49 78 80 88 87 87 88 80 86 84 83 87 87 96 93 88 80 75
27 28 30 32 34 35 36 38 39 39 39 39 39 39 38 37 38 41 45 50 55 81 94 64 62 80 80 79 84 99 96 89 88 94 92 88 85 85 85 94 110 106 91
28 29 32 35 38 41 45 46 46 46 45 44 42 41 41 42 42 42 43 46 51 64 88 83 89 84 81 85 87 97 94 94 86 82 79 83 94 92 95 88 90 114 117
29 30 34 37 40 42 46 47 47 47 47 46 47 50 49 51 51 49 47 47 51 58 80 104 85 88 87 94 99 99 92 82 82 86 84 85 79 85 93 86 86 90 97
29 31 34 37 40 43 46 48 51 52 53 54 53 53 50 49 48 51 50 53 57 61 69 95 96 90 87 87 87 85 86 80 76 93 99 92 96 92 87 89 83 76 84
28 30 33 37 39 43 46 48 51 52 55 56 56 56 56 56 56 54 57 58 61 71 74 80 97 91 88 82 89 88 85 86 84 87 83 87 95 108 107 101 78 70 71
26 30 33 36 39 43 46 49 51 51 53 54 57 58 58 61 57 61 61 69 74 76 79 82 87 91 90 96 87 90 111 93 96 91 96 86 80 76 79 87 79 75 69
27 30 31 34 39 44 48 51 51 52 53 54 57 61 62 66 69 71 73 78 72 71 75 78 85 89 92 95 95 100 97 114 115 95 98 78 75 93 84 64 62 66 69
25 26 29 33 37 42 45 49 52 52 54 60 61 61 62 65 70 73 76 77 69 66 68 70 83 86 93 94 95 94 97 99 113 88 65 114 93 99 72 48 44 52 62
22 24 27 31 35 39 43 46 49 53 57 59 61 63 65 67 71 76 78 78 76 69 54 65 75 76 87 85 87 94 90 90 96 104 88 107 95 87 54 45 31 34 42
19 22 26 31 34 39 42 44 48 51 52 55 59 62 65 68 67 73 78 80 81 76 68 68 61 68 75 80 75 82 83 85 93 96 74 84 81 66 55 37 39 28 55
17 21 25 30 34 38 43 47 49 50 52 54 57 60 63 67 68 68 72 76 82 81 74 72 68 66 71 74 75 78 80 84 88 95 80 50 67 76 69 40 43 33 47
16 20 24 29 32 37 42 48 52 53 56 57 55 58 61 65 66 64 65 69 79 83 87 87 85 79 73 77 77 71 76 82 82 79 61 57 75 59 44 60 47 28 58
Wind_Direction_500mb
13 3 340 321 302 285 279 277 281 282 283 283 286 289 289 290 290 291 289 284 281 280 277 276 278 280 280 280 278 278 277 279 280 280 281 282 281 280 278 277 277 278 278
287 291 282 299 307 309 302 297 291 289 291 293 289 288 288 288 289 290 291 290 286 283 283 280 279 281 281 280 280 279 277 277 277 277 278 278 278 278 277 276 277 277 277
263 254 257 252 273 279 285 287 283 287 292 292 292 291 293 294 292 292 292 292 293 290 286 283 281 278 277 278 280 281 281 281 279 277 276 276 274 274 275 276 276 276 276
262 266 268 274 277 279 284 276 277 279 278 279 279 282 284 283 283 282 285 287 288 291 293 291 288 283 281 280 280 279 279 280 280 280 280 277 275 274 274 274 273 273 273
265 267 266 274 281 284 286 284 286 289 290 284 283 285 284 282 280 284 288 288 288 289 290 291 289 285 282 282 282 279 277 278 279 280 279 278 277 276 276 276 275 274 272
278 282 292 296 293 294 299 300 299 300 296 295 295 296 299 297 296 293 289 284 288 292 293 293 290 291 290 289 286 284 281 282 283 282 283 280 276 274 274 274 273 273 273
351 338 337 337 331 329 328 323 323 324 317 315 316 308 309 306 297 289 290 291 295 292 290 287 285 290 290 290 289 288 285 284 283 284 286 283 280 279 275 273 272 269 269
15 359 352 348 348 346 338 335 332 334 333 333 338 335 328 324 296 292 286 283 290 293 287 289 291 290 293 295 290 289 288 290 290 287 285 284 283 283 284 283 272 269 268
32 21 14 8 2 356 353 350 348 347 347 348 347 351 339 316 320 317 300 296 299 293 291 297 297 296 292 293 292 292 293 291 289 286 286 284 283 283 282 277 278 274 272
32 28 26 25 22 18 12 8 2 356 352 348 348 343 338 289 316 314 307 315 310 313 312 311 313 308 306 306 301 293 287 292 286 281 277 276 278 278 278 277 273 271 270
34 29 24 20 15 12 9 4 1 360 358 356 351 345 340 343 306 300 305 312 317 318 320 317 317 321 314 307 303 304 289 282 279 280 284 281 274 270 270 269 267 264 263
37 32 28 25 22 17 13 8 5 2 0 358 356 349 346 340 322 315 305 307 314 320 320 327 322 322 315 314 313 297 286 284 282 280 279 281 282 278 272 270 271 269 266
38 33 27 25 24 22 20 18 14 11 10 6 357 349 341 333 328 316 310 312 312 317 320 315 322 320 325 322 307 306 300 290 285 281 278 277 276 279 276 270 265 265 266
37 31 25 24 24 24 24 22 17 13 9 4 357 349 343 336 327 319 316 320 318 311 314 313 319 320 321 315 313 313 309 304 297 288 282 279 280 281 274 272 267 259 261
40 34 30 29 28 29 28 23 21 16 10 4 359 351 344 338 330 324 320 315 312 311 314 317 316 319 317 318 314 313 312 306 297 291 289 285 285 290 285 274 269 263 259
42 36 33 31 29 28 25 24 20 15 10 4 357 352 346 343 338 330 322 319 313 309 301 309 314 317 317 312 314 314 310 308 306 299 302 297 284 289 285 283 280 269 268
40 37 35 31 31 27 27 24 21 17 13 9 4 359 354 347 344 340 329 321 313 311 306 307 311 314 314 314 314 318 315 309 302 300 292 294 291 285 284 285 292 286 275
42 37 32 32 32 30 27 25 22 18 15 13 8 3 356 350 344 341 335 328 323 317 314 310 314 317 319 318 318 315 318 317 305 298 299 284 284 281 284 290 290 294 287
45 39 34 34 32 29 26 24 21 18 18 14 10 6 1 356 354 342 336 332 327 322 318 314 312 319 318 319 318 317 315 315 313 313 312 304 286 280 280 284 288 295 293
47 41 36 33 30 29 26 23 21 19 17 14 11 8 3 2 352 346 342 337 333 329 327 322 318 318 320 325 321 317 319 316 312 314 313 313 311 304 290 282 282 295 295
46 41 36 33 30 28 25 23 21 18 15 13 13 10 5 2 356 352 347 344 340 333 328 323 319 319 320 322 320 319 311 315 313 313 312 310 308 307 304 300 288 298 304
47 41 34 32 31 29 26 23 20 21 17 14 10 7 3 360 355 353 351 350 347 337 327 324 319 318 318 318 322 322 320 316 312 316 304 307 311 312 311 307 310 315 312
46 38 33 30 26 25 22 21 18 18 17 12 8 4 0 357 354 348 349 349 348 348 336 324 320 324 325 330 326 327 325 319 312 314 313 310 319 315 320 325 316 321 333
44 36 29 26 21 19 16 15 14 14 12 10 7 3 358 354 353 346 345 347 351 353 346 340 333 333 336 338 335 330 327 327 323 324 318 300 324 319 336 328 314 294 336
42 34 27 23 20 17 12 11 12 12 11 9 5 3 357 354 352 348 345 347 352 356 353 355 352 350 351 347 348 343 339 336 325 329 332 310 323 322 327 325 324 303 332
42 32 23 20 20 17 11 7 7 9 8 7 6 1 358 357 357 355 352 352 352 355 360 1 3 1 358 353 355 354 348 336 333 324 332 314 316 328 318 326 333 313 320
Wind_Speed_850mb
8 7 5 6 9 13 15 17 20 22 24 27 29 34 35 37 38 41 44 45 47 50 52 56 62 64 64 63 61 58 56 55 54 54 55 55 56 56 56 56 56 56 54
11 13 15 16 20 21 23 24 27 28 30 35 34 35 36 36 38 40 45 49 48 48 49 52 55 57 62 66 68 69 70 69 69 68 69 68 67 65 63 63 62 60 60
22 25 24 23 26 31 33 37 38 37 44 47 44 46 49 47 47 46 46 50 53 56 57 59 60 60 59 62 65 69 73 75 76 77 78 79 79 78 77 75 71 67 65
21 25 29 29 28 34 38 42 44 50 49 52 53 51 57 59 60 59 59 58 58 58 60 59 57 60 66 69 71 73 75 77 80 82 83 83 82 83 84 84 83 79 76
20 24 25 29 33 36 40 36 42 43 46 51 56 62 65 67 69 69 66 67 65 67 67 66 62 58 59 60 65 71 75 78 81 83 85 85 84 84 83 83 82 83 82
9 11 15 17 20 21 22 25 26 29 35 43 50 56 55 55 56 56 57 57 57 55 50 51 56 61 66 69 65 63 62 62 66 71 74 82 85 84 84 84 82 79 77
6 8 11 12 15 18 22 25 26 29 33 38 44 48 47 39 36 40 44 38 40 44 47 51 58 53 56 65 71 66 64 68 70 71 70 72 73 79 85 88 85 82 81
9 12 14 16 19 21 23 25 27 28 31 37 37 35 26 40 20 27 42 52 53 59 53 53 57 61 64 57 60 65 69 70 69 71 72 72 77 78 75 75 86 86 83
13 14 16 18 20 23 26 30 31 33 36 35 34 23 16 16 54 27 44 33 46 60 63 70 66 67 70 74 77 77 69 67 68 70 76 78 76 75 75 74 68 69 75
18 21 24 25 27 28 29 31 32 31 30 31 28 30 23 18 19 42 45 71 46 69 66 70 65 68 68 61 56 58 71 71 67 67 73 76 75 77 72 72 73 75 74
22 24 27 30 31 33 34 34 33 35 36 32 29 33 26 29 13 33 62 64 76 68 68 76 73 60 62 60 65 67 68 74 77 72 71 76 78 76 76 75 74 75 74
24 27 28 28 29 29 30 31 32 33 34 33 32 36 36 32 40 34 52 67 72 71 81 52 67 51 68 65 68 64 67 67 68 73 79 80 80 80 78 76 80 82 81
27 30 31 32 33 34 34 34 34 34 35 36 36 36 34 35 38 40 51 66 75 81 47 69 63 67 58 58 63 85 86 84 87 87 88 81 83 81 77 74 73 74 75
30 31 32 33 34 35 36 35 35 35 35 34 33 33 36 34 36 38 47 61 84 53 63 66 53 49 78 80 88 87 87 88 80 86 84 83 87 87 96 93 88 80 75
27 28 30 32 34 35 36 38 39 39 39 39 39 39 38 37 38 41 45 50 55 81 94 64 62 80 80 79 84 99 96 89 88 94 92 88 85 85 85 94 110 106 91
28 29 32 35 38 41 45 46 46 46 45 44 42 41 41 42 42 42 43 46 51 64 88 83 89 84 81 85 87 97 94 94 86 82 79 83 94 92 95 88 90 114 117
29 30 34 37 40 42 46 47 47 47 47 46 47 50 49 51 51 49 47 47 51 58 80 104 85 88 87 94 99 99 92 82 82 86 84 85 79 85 93 86 86 90 97
29 31 34 37 40 43 46 48 51 52 53 54 53 53 50 49 48 51 50 53 57 61 69 95 96 90 87 87 87 85 86 80 76 93 99 92 96 92 87 89 83 76 84
28 30 33 37 39 43 46 48 51 52 55 56 56 56 56 56 56 54 57 58 61 71 74 80 97 91 88 82 89 88 85 86 84 87 83 87 95 108 107 101 78 70 71
26 30 33 36 39 43 46 49 51 51 53 54 57 58 58 61 57 61 61 69 74 76 79 82 87 91 90 96 87 90 111 93 96 91 96 86 80 76 79 87 79 75 69
27 30 31 34 39 44 48 51 51 52 53 54 57 61 62 66 69 71 73 78 72 71 75 78 85 89 92 95 95 100 97 114 115 95 98 78 75 93 84 64 62 66 69
25 26 29 33 37 42 45 49 52 52 54 60 61 61 62 65 70 73 76 77 69 66 68 70 83 86 93 94 95 94 97 99 113 88 65 114 93 99 72 48 44 52 62
22 24 27 31 35 39 43 46 49 53 57 59 61 63 65 67 71 76 78 78 76 69 54 65 75 76 87 85 87 94 90 90 96 104 88 107 95 87 54 45 31 34 42
19 22 26 31 34 39 42 44 48 51 52 55 59 62 65 68 67 73 78 80 81 76 68 68 61 68 75 80 75 82 83 85 93 96 74 84 81 66 55 37 39 28 55
17 21 25 30 34 38 43 47 49 50 52 54 57 60 63 67 68 68 72 76 82 81 74 72 68 66 71 74 75 78 80 84 88 95 80 50 67 76 69 40 43 33 47
16 20 24 29 32 37 42 48 52 53 56 57 55 58 61 65 66 64 65 69 79 83 87 87 85 79 73 77 77 71 76 82 82 79 61 57 75 59 44 60 47 28 58
Wind_Direction_850mb
13 3 340 321 302 285 279 277 281 282 283 283 286 289 289 290 290 291 289 284 281 280 277 276 278 280 280 280 278 278 277 279 280 280 281 282 281 280 278 277 277 278 278
287 291 282 299 307 309 302 297 291 289 291 293 289 288 288 288 289 290 291 290 286 283 283 280 279 281 281 280 280 279 277 277 277 277 278 278 278 278 277 276 277 277 277
263 254 257 252 273 279 285 287 283 287 292 292 292 291 293 294 292 292 292 292 293 290 286 283 281 278 277 278 280 281 281 281 279 277 276 276 274 274 275 276 276 276 276
262 266 268 274 277 279 284 276 277 279 278 279 279 282 284 283 283 282 285 287 288 291 293 291 288 283 281 280 280 279 279 280 280 280 280 277 275 274 274 274 273 273 273
265 267 266 274 281 284 286 284 286 289 290 284 283 285 284 282 280 284 288 288 288 289 290 291 289 285 282 282 282 279 277 278 279 280 279 278 277 276 276 276 275 274 272
278 282 292 296 293 294 299 300 299 300 296 295 295 296 299 297 296 293 289 284 288 292 293 293 290 291 290 289 286 284 281 282 283 282 283 280 276 274 274 274 273 273 273
351 338 337 337 331 329 328 323 323 324 317 315 316 308 309 306 297 289 290 291 295 292 290 287 285 290 290 290 289 288 285 284 283 284 286 283 280 279 275 273 272 269 269
15 359 352 348 348 346 338 335 332 334 333 333 338 335 328 324 296 292 286 283 290 293 287 289 291 290 293 295 290 289 288 290 290 287 285 284 283 283 284 283 272 269 268
32 21 14 8 2 356 353 350 348 347 347 348 347 351 339 316 320 317 300 296 299 293 291 297 297 296 292 293 292 292 293 291 289 286 286 284 283 283 282 277 278 274 272
32 28 26 25 22 18 12 8 2 356 352 348 348 343 338 289 316 314 307 315 310 313 312 311 313 308 306 306 301 293 287 292 286 281 277 276 278 278 278 277 273 271 270
34 29 24 20 15 12 9 4 1 360 358 356 351 345 340 343 306 300 305 312 317 318 320 317 317 321 314 307 303 304 289 282 279 280 284 281 274 270 270 269 267 264 263
37 32 28 25 22 17 13 8 5 2 0 358 356 349 346 340 322 315 305 307 314 320 320 327 322 322 315 314 313 297 286 284 282 280 279 281 282 278 272 270 271 269 266
38 33 27 25 24 22 20 18 14 11 10 6 357 349 341 333 328 316 310 312 312 317 320 315 322 320 325 322 307 306 300 290 285 281 278 277 276 279 276 270 265 265 266
37 31 25 24 24 24 24 22 17 13 9 4 357 349 343 336 327 319 316 320 318 311 314 313 319 320 321 315 313 313 309 304 297 288 282 279 280 281 274 272 267 259 261
40 34 30 29 28 29 28 23 21 16 10 4 359 351 344 338 330 324 320 315 312 311 314 317 316 319 317 318 314 313 312 306 297 291 289 285 285 290 285 274 269 263 259
42 36 33 31 29 28 25 24 20 15 10 4 357 352 346 343 338 330 322 319 313 309 301 309 314 317 317 312 314 314 310 308 306 299 302 297 284 289 285 283 280 269 268
40 37 35 31 31 27 27 24 21 17 13 9 4 359 354 347 344 340 329 321 313 311 306 307 311 314 314 314 314 318 315 309 302 300 292 294 291 285 284 285 292 286 275
42 37 32 32 32 30 27 25 22 18 15 13 8 3 356 350 344 341 335 328 323 317 314 310 314 317 319 318 318 315 318 317 305 298 299 284 284 281 284 290 290 294 287
45 39 34 34 32 29 26 24 21 18 18 14 10 6 1 356 354 342 336 332 327 322 318 314 312 319 318 319 318 317 315 315 313 313 312 304 286 280 280 284 288 295 293
47 41 36 33 30 29 26 23 21 19 17 14 11 8 3 2 352 346 342 337 333 329 327 322 318 318 320 325 321 317 319 316 312 314 313 313 311 304 290 282 282 295 295
46 41 36 33 30 28 25 23 21 18 15 13 13 10 5 2 356 352 347 344 340 333 328 323 319 319 320 322 320 319 311 315 313 313 312 310 308 307 304 300 288 298 304
47 41 34 32 31 29 26 23 20 21 17 14 10 7 3 360 355 353 351 350 347 337 327 324 319 318 318 318 322 322 320 316 312 316 304 307 311 312 311 307 310 315 312
46 38 33 30 26 25 22 21 18 18 17 12 8 4 0 357 354 348 349 349 348 348 336 324 320 324 325 330 326 327 325 319 312 314 313 310 319 315 320 325 316 321 333
44 36 29 26 21 19 16 15 14 14 12 10 7 3 358 354 353 346 345 347 351 353 346 340 333 333 336 338 335 330 327 327 323 324 318 300 324 319 336 328 314 294 336
42 34 27 23 20 17 12 11 12 12 11 9 5 3 357 354 352 348 345 347 352 356 353 355 352 350 351 347 348 343 339 336 325 329 332 310 323 322 327 325 324 303 332
42 32 23 20 20 17 11 7 7 9 8 7 6 1 358 357 357 355 352 352 352 355 360 1 3 1 358 353 355 354 348 336 333 324 332 314 316 328 318 326 333 313 320